Regional Weather Roundup
Issued by NWS Green Bay, WI

Home | Current Version | Previous Version | Graphics & Text | Print | Product List | Glossary Off
Versions: 1 2 3 4 5 6 7 8 9 10 11 12 13 14 15 16 17 18 19 20 21 22 23 24 25 26 27 28 29 30 31 32 33 34 35 36 37 38 39 40 41 42 43 44 45 46 47 48 49 50

000
ASUS43 KGRB 200810
RWRGRB

NORTH-CENTRAL AND NORTHEAST WISCONSIN REGIONAL WEATHER ROUNDUP
NATIONAL WEATHER SERVICE GREEN BAY WI
300 AM CDT MON OCT 20 2014

WIZ005-009-010>012-018-019-200900-
NORTH CENTRAL WISCONSIN

CITY           SKY/WX    TMP DP  RH WIND       PRES   REMARKS
IRONWOOD       CLOUDY    48  43  81 NW7       29.78S
MANITOWISH WTR MOCLDY    44  42  94 NW5       29.79S
ARBOR VITAE    CLOUDY    47  43  88 N9        29.78S
EAGLE RIVER    PTCLDY    38  38 100 CALM      29.76R
LAND O LAKES   CLOUDY    42  42 100 NW3       29.77S
RHINELANDER    CLEAR     45  41  86 NW3       29.78R
PHILLIPS       PTCLDY    42  40  93 NW3       29.80R
ANTIGO         FOG       35  35 100 CALM      29.76S VSB 1/2
TOMAHAWK       CLEAR     40  39  97 CALM      29.79R
MERRILL        CLEAR     32  32 100 CALM      29.78R
$$

WIZ013-073-200900-
NORTHEAST WISCONSIN

CITY           SKY/WX    TMP DP  RH WIND       PRES   REMARKS
IRON MOUNTAIN  FOG       38  38 100 CALM      29.73S VSB 3/4
MARINETTE      CLOUDY    48  43  81 CALM      29.73S
OCONTO         CLEAR     39  39 100 CALM      29.74S
$$

WIZ017-030-035>037-045-200900-
CENTRAL WISCONSIN

CITY           SKY/WX    TMP DP  RH WIND       PRES   REMARKS
MEDFORD        CLEAR     43  40  91 N7        29.80R
WAUSAU         CLEAR     42  41  96 NW7       29.76R
MOSINEE        MOCLDY    41  41 100 NW5       29.77S
MARSHFIELD     PTCLDY    47  43  86 N10       29.78R
WISC RAPIDS    CLEAR     39  38  96 CALM      29.78S
STEVENS POINT  PTCLDY    35  34  99 CALM      29.78R
WAUPACA        CLEAR     41  40  96 CALM      29.77R FOG
SHAWANO        CLEAR     41  39  93 CALM      29.76R
CLINTONVILLE   FOG       37  37 100 CALM      29.76S VSB 3/4
$$

WIZ038-039-048-051-200900-
FOX VALLEY

CITY           SKY/WX    TMP DP  RH WIND       PRES   REMARKS
NWS GREEN BAY  CLEAR     45  42  89 SW3       29.75F
APPLETON       CLEAR     41  39  93 S3        29.76S
OSHKOSH        CLEAR     47  42  83 VRB3      29.76S
FOND DU LAC    CLEAR     47  41  80 SW9       29.77S
$$

WIZ022-050-052-200900-
EAST CENTRAL WISCONSIN

CITY           SKY/WX    TMP DP  RH WIND       PRES   REMARKS
STURGEON BAY   PTCLDY    48  43  81 SW7       29.74F
MANITOWOC      PTCLDY    47  43  86 CALM      29.76F
SHEBOYGAN      PTCLDY    47  41  80 W7        29.77S
$$

LMZ563-521-522-541>543-200900-
LAKESHORE

STATION/POSITION TIME  TEMP    WIND        PRES    VSBY  WAVE
                       AIR SEA DIR/SP/G                  HT/PER
                 (UTC) (F)     (DEG/KT/KT) (MB)    (MI)  (FT/S)
SHEBOYGAN LKSHOR 0800   52 51  260/ 10/ 12 1008.0F
KEWAUNEE LKSHORE 0800   47     300/  6/  6 1006.5F
NORTHPORT PIER   0800   53     260/  5/  9 1007.1S
N MID LAKE BUOY  0800   52 52  240/ 14/ 16 1006.9R         6/ 7
CHAMBERS ISLAND  0800   51     230/  4/ 10 1007.1S
MENOMINEE LKSHOR 0800   50     260/  8/ 11 1007.5F
$$


USA.gov is the U.S. government's official web portal to all federal, state and local government web resources and services.